User: anonymous   Login
Location: Guilderland
(42.7045°N, 73.9115°W)
Time: 21:27:43
(UTC+00:00)
Language:

SL-8 R/B - Orbit

View from above orbital plane
View from above orbital plane
View from above satellite
View from above satellite

Ground track
Ground track

The orbit data is extracted from the following two-line orbital elements,

1 33066U 08031G   20088.37112064 -.00000147  00000-0  82100-5 0  9991
2 33066  48.4446  41.2691 0007065  86.5161 273.6558 14.69692892632078
Epoch (UTC): 28 March 2020 08:54:24
Eccentricity: 0.0007065
inclination: 48.4446°
perigee height: 657 km
apogee height: 667 km
right ascension of ascending node: 41.2691°
argument of perigee: 86.5161°
revolutions per day: 14.69692892
mean anomaly at epoch: 273.6558°
orbit number at epoch: 63207

The dashed part of the orbit path shows where the satellite is in the earth's shadow,  

DLR